Mandrake 2A

operational
NORAD ID: 48907 Int'l Des: 2021-059 Owner: SDA/DARPA2 Country: US
LEOCIRCULARRETROGRADE

关于 Mandrake 2A

正在加载描述...

实时位置

正在加载3D地球...

即将过境

高度历史

Altitude vs Time

uPlot chart will show altitude changes over time

两行轨道根数

1 48907U 21059AE 26061.06980309 .00024315 00000-0 43027-3 0 9999
2 48907 97.7023 243.0408 0005080 35.3713 324.7874 15.50294687260509
Epoch: Mar 2, 2026 • Age: 34 hours

当前状态

高度 421.6 km
速度 7.67 km/s
星下点 54.42°N, 84.18°W
发射日期 Jun 30, 2021
运行时间 4.6 years
类型 other

技术详情

分类 Payload
质量 23.00 kg
干质量 23.00 kg
总质量 23.00 kg
长度 0.50 m
直径 0.50 m
跨度 0.50 m
形状 Box + pan
制造商 ADIG
平台类型 Corvus-XL
阶段状态 In Orbit
所有者/国家 SDA/DARPA2/US

大型星座

Loading constellations...